Location: Airlie Beach - Cannonvale QLD, Australia
(20.2768°S, 148.7558°E)
Time: 05:58:11
(UTC+10:00)

BlueWalker 3 - Pass Details

Date: 02 April 2023
Orbit: 494 x 513 km, 53.2° (Epoch: 31 May)

Event Time Altitude Azimuth Distance (km) Brightness Sun altitude
Exits shadow 05:29:25 16° 264° (W) 1,379 3.5 -10.9°
Maximum altitude 05:31:14 21° 228° (SW) 1,155 3.3 -10.4°
Drops below altitude 10° 05:34:14 10° 176° (S) 1,710 4.7 -9.7°
Sets 05:36:50 0° 160° (SSE) 2,603 5.8 -9.1°
